Temp
62 62 62 62 62 61 61 61 61 61 61 62 62 62 62 62 62 62 62 62 63 63 64 64 64 64 63 63 63 63 63 62 62 62 62 62 62 62 62 61 61 60 60 60 60 60 60 60 61 61 61 61 61 62 62 62 62 62 62 63 63 63 64 64 64 64 63 63 63
62 61 61 61 61 61 61 61 61 61 61 61 62 62 61 61 61 61 61 61 62 62 62 63 63 62 62 62 62 62 61 62 62 62 61 62 62 62 62 61 61 61 61 60 60 59 59 59 59 60 60 60 60 60 60 60 61 61 61 61 62 62 62 62 63 63 63 64 64
61 61 61 61 61 61 61 61 61 60 60 61 61 61 61 61 61 61 61 61 61 61 61 61 61 61 61 61 60 60 60 60 61 60 60 60 61 61 61 60 60 60 60 59 59 58 58 58 58 58 59 59 59 59 59 60 60 60 61 61 61 61 61 61 61 61 62 62 63
61 61 61 60 61 60 60 61 61 60 60 61 60 60 60 60 60 60 60 60 59 59 59 60 59 59 59 59 59 59 60 60 60 59 59 59 59 59 60 60 59 59 59 58 58 57 57 57 58 58 58 57 57 58 58 59 59 60 60 60 60 60 60 60 59 59 60 59 60
60 60 60 60 60 60 60 60 60 60 60 60 60 59 59 59 59 59 59 59 59 59 59 58 58 58 58 58 58 58 58 59 59 58 58 58 58 58 58 59 58 58 57 57 57 57 57 57 57 57 57 57 57 57 57 57 58 58 59 59 59 59 59 59 58 58 58 57 57
59 59 59 59 59 59 59 59 59 59 59 59 59 58 58 59 58 58 58 58 58 58 58 58 58 58 57 57 57 57 57 58 58 58 58 58 58 57 57 57 57 56 57 57 57 57 57 57 57 57 57 57 58 58 57 57 57 57 57 57 58 58 58 58 57 57 56 56 55
59 59 59 59 58 58 58 58 58 58 58 58 57 57 57 58 57 57 57 57 57 57 57 57 57 57 57 57 57 57 57 57 57 58 58 57 57 57 57 57 57 57 57 57 58 58 58 58 58 57 57 58 57 57 57 57 57 56 56 56 57 57 57 57 56 56 56 55 55
59 58 58 58 57 57 57 57 56 56 56 56 56 56 56 56 56 56 56 55 55 55 56 56 56 56 56 56 56 57 57 57 57 57 56 56 56 56 56 57 57 57 57 57 57 57 57 57 57 57 57 57 57 57 57 57 56 56 56 56 56 55 55 55 55 55 55 55 55
57 57 57 57 57 56 56 56 55 55 54 54 54 54 54 54 54 54 53 53 53 54 54 54 55 55 55 55 55 55 55 55 55 55 54 54 54 54 55 55 55 55 55 56 56 56 56 56 56 56 56 57 56 57 57 57 56 56 56 56 54 53 53 53 54 54 54 54 54
56 56 56 56 56 56 56 55 55 54 54 53 54 54 54 54 53 53 52 52 53 53 53 53 53 54 54 53 53 53 52 52 51 51 52 52 52 52 52 52 52 52 53 53 54 54 54 55 55 55 56 56 56 56 56 56 56 55 55 54 53 54 54 54 55 55 55 54 54
56 56 55 55 55 55 55 55 54 54 54 54 54 54 54 54 53 53 52 52 52 52 52 53 52 52 52 52 52 51 51 51 51 50 50 50 51 51 51 50 51 51 51 51 52 52 53 53 54 54 54 54 55 54 54 55 55 54 54 53 53 54 54 53 53 54 54 54 53
55 55 55 55 55 55 54 54 54 54 54 54 54 54 53 53 53 53 53 52 52 52 52 52 51 51 50 50 50 50 50 50 50 50 50 49 49 49 49 49 50 51 51 51 51 52 52 52 52 52 52 53 53 53 53 53 53 53 53 53 53 53 53 52 52 52 51 51 51
55 55 54 54 54 54 54 53 53 53 53 53 53 53 53 52 52 52 52 51 51 51 51 51 50 49 49 49 49 49 49 49 49 49 49 49 49 49 49 50 51 51 51 52 53 53 52 52 52 52 52 53 53 53 52 52 53 53 53 53 53 52 52 51 50 50 50 50 49
54 54 54 54 54 53 53 53 53 53 53 52 52 52 52 51 51 51 50 50 50 50 50 50 49 49 49 49 49 49 49 50 49 49 49 50 50 50 51 52 51 51 51 51 52 52 51 51 52 52 52 53 52 52 52 52 52 52 53 52 52 51 50 49 49 49 49 48 48
54 54 53 53 53 52 52 52 52 52 52 51 51 51 51 50 50 50 50 49 50 50 50 50 50 51 51 51 51 52 52 52 51 51 50 51 51 51 51 51 51 50 50 50 50 50 50 50 50 50 50 50 50 50 50 50 50 50 50 50 50 49 49 48 48 48 48 47 46
53 53 53 53 52 52 52 51 51 51 51 50 50 50 50 49 50 50 50 51 50 51 51 52 52 52 52 52 52 52 52 52 51 51 50 50 50 50 50 49 49 49 49 49 49 49 48 48 48 48 49 48 48 48 48 48 48 48 48 48 48 47 47 47 47 47 46 46 46
53 53 52 52 52 51 51 51 51 51 50 50 50 50 49 49 50 51 51 51 51 51 53 53 52 51 51 51 51 51 51 51 51 50 50 49 49 49 48 48 48 48 48 48 48 47 47 47 47 47 47 47 47 47 47 47 46 46 46 46 46 46 46 46 46 46 46 45 45
52 52 52 52 51 51 51 51 50 50 50 50 50 50 50 50 52 52 52 52 51 52 52 52 51 51 51 50 50 50 50 50 49 49 49 48 48 48 48 48 48 48 48 48 47 46 46 46 46 46 46 46 46 46 46 46 45 45 45 45 45 45 45 46 45 45 45 45 45
52 52 51 51 51 51 51 50 50 50 50 50 50 50 51 52 52 52 51 51 51 51 51 51 51 50 50 50 49 49 49 49 49 48 48 48 48 47 47 47 47 47 47 47 46 46 46 46 46 46 45 45 45 45 45 45 44 44 44 44 44 44 44 45 45 45 45 45 45
51 51 51 51 51 50 50 49 49 50 51 50 51 51 51 51 52 51 50 50 50 50 50 50 49 49 49 49 49 49 48 48 48 48 47 47 47 47 47 47 46 46 46 46 46 46 46 46 46 45 45 45 44 44 44 44 44 44 44 44 44 44 44 44 44 44 45 45 45
51 51 51 50 50 49 48 48 48 49 49 48 50 50 51 51 51 50 50 50 50 50 50 49 49 48 48 48 48 48 48 48 47 47 47 46 46 46 46 46 46 46 46 45 45 45 45 45 45 45 45 44 44 43 43 43 43 43 43 43 43 43 43 43 43 43 43 44 44
50 50 50 49 48 48 47 48 49 49 49 49 49 50 50 50 50 49 49 49 50 49 49 48 48 48 48 48 48 48 47 47 47 47 46 46 46 46 46 46 45 45 44 44 44 44 44 45 45 44 44 44 43 43 43 43 42 42 42 42 42 42 42 42 42 42 42 42 43
50 49 49 48 47 47 47 48 50 50 50 48 47 48 49 49 49 49 49 49 49 49 48 48 48 48 48 48 47 47 47 47 46 46 46 46 45 45 45 45 44 44 44 44 43 43 43 44 44 44 44 43 43 43 43 43 42 42 41 41 41 41 41 41 41 41 42 42 42
49 48 47 47 47 46 47 48 50 50 49 46 46 47 48 48 48 48 49 49 48 48 48 48 47 47 47 47 47 47 47 47 46 45 45 45 45 45 44 44 44 44 43 44 44 44 43 43 43 43 43 43 42 42 42 42 42 41 41 41 40 40 40 41 41 41 41 41 41
49 47 46 46 46 46 47 48 50 50 48 46 46 46 46 46 47 47 48 48 48 48 47 47 47 47 47 47 47 47 47 46 46 45 45 45 45 45 44 44 44 43 44 44 45 46 45 45 44 43 42 42 42 42 42 42 41 41 41 41 41 41 41 41 41 41 41 41 41
48 46 46 46 46 47 48 49 50 49 49 46 45 45 45 45 46 47 47 48 47 47 47 46 46 46 47 46 46 46 46 46 46 45 44 44 44 44 44 43 43 43 44 45 46 47 46 46 45 44 43 42 42 42 42 41 42 42 42 42 41 41 41 40 40 40 40 41 41
47 46 46 46 47 49 50 50 49 49 48 47 47 47 47 46 47 47 47 47 47 47 47 46 46 46 46 46 46 45 45 44 45 45 45 45 44 44 43 43 43 43 44 46 47 47 47 47 46 45 44 42 42 42 42 41 42 42 42 42 42 41 41 40 40 40 40 40 40
48 48 49 49 49 50 50 50 49 48 47 47 47 47 47 47 47 47 47 47 47 47 46 46 46 46 46 45 45 45 45 45 45 45 45 45 45 44 44 43 43 44 45 46 47 47 47 47 47 46 45 44 42 42 42 42 42 42 41 42 42 41 41 40 40 40 40 40 40
50 49 49 49 49 49 49 49 48 47 47 47 46 46 47 46 46 46 46 47 47 46 45 44 45 45 45 45 45 45 45 45 45 45 45 45 44 44 44 43 43 44 45 47 47 47 47 47 47 46 46 45 43 42 42 42 42 42 41 41 41 41 41 41 41 41 40 40 40
49 49 49 48 48 48 48 47 47 47 47 47 46 46 46 46 46 46 46 46 46 45 45 45 44 44 44 44 44 44 44 44 45 45 45 45 44 44 43 43 43 44 45 47 47 47 47 46 46 46 46 45 44 43 42 41 41 41 41 41 41 41 41 40 40 40 40 40 39
49 49 48 48 47 47 46 46 46 46 46 46 46 46 45 45 46 46 46 45 45 45 45 45 44 44 44 44 44 44 44 44 44 45 44 44 44 44 43 43 43 44 45 47 47 46 46 46 46 46 45 45 44 42 41 41 41 40 40 40 40 40 40 39 39 39 39 38 38
49 48 48 47 47 46 45 44 44 44 44 45 45 45 46 46 45 45 45 45 44 44 44 44 44 44 44 43 43 43 43 44 44 44 44 44 44 43 43 43 43 44 45 46 46 46 46 45 45 45 45 45 44 42 41 40 40 40 40 40 40 40 39 38 38 38 38 38 37
49 48 47 47 46 45 43 42 42 42 43 44 44 45 46 46 44 44 44 44 44 44 44 44 44 43 43 43 43 43 43 44 44 44 44 44 43 43 43 42 43 44 45 46 46 46 45 45 45 45 45 45 43 41 39 39 39 39 39 39 39 38 38 38 38 38 38 38 37
48 48 47 46 45 43 42 41 42 42 43 43 44 45 45 45 44 44 44 44 44 44 44 44 44 44 44 44 43 43 43 44 44 43 43 43 43 42 42 42 42 44 45 46 45 45 45 44 44 44 44 44 41 40 39 39 39 39 38 38 38 37 37 37 37 37 38 38 38
47 47 46 44 43 42 41 41 42 43 43 44 44 44 44 43 43 43 43 44 44 44 44 44 44 44 44 44 44 43 43 43 43 43 43 43 43 42 42 41 42 43 45 45 45 44 44 44 44 44 43 43 40 39 39 38 38 38 38 37 36 36 36 36 36 36 37 37 38
46 45 45 44 43 41 40 41 41 42 42 43 43 43 43 43 43 43 43 44 43 43 43 43 43 43 43 43 43 43 43 43 42 42 42 43 42 42 41 41 41 43 44 45 44 44 44 43 43 43 43 41 39 38 38 38 37 37 37 36 35 35 35 35 35 35 36 36 37
46 46 45 43 42 40 40 39 40 41 42 43 43 42 42 42 43 43 43 43 43 42 42 42 42 42 42 42 42 42 42 43 42 42 42 42 42 41 41 40 40 42 43 44 44 43 43 43 43 43 42 39 38 37 37 37 37 36 36 35 35 35 35 34 35 35 35 35 37
45 45 44 43 41 40 39 39 40 40 41 42 42 42 42 42 42 42 42 43 42 42 42 42 42 41 41 42 42 42 42 42 42 41 41 41 41 41 40 40 40 41 42 43 43 43 43 43 43 43 42 39 37 37 36 36 35 35 35 34 34 34 34 34 34 34 34 35 38
44 44 44 43 42 42 41 40 40 41 42 42 42 42 42 42 42 42 42 42 42 41 41 41 41 41 41 41 41 41 40 40 40 40 40 39 40 40 40 40 39 40 41 43 43 43 42 42 43 43 42 40 37 36 36 36 35 34 34 34 33 33 34 34 33 33 33 34 40
44 44 43 43 43 42 42 41 41 41 42 42 42 42 42 42 42 42 42 42 41 41 41 40 40 40 41 41 40 39 39 38 38 38 38 38 39 40 40 39 39 39 40 42 42 42 42 42 43 43 42 40 37 36 36 35 35 34 34 33 33 33 33 33 33 32 32 33 37
44 44 43 43 43 42 42 42 42 42 42 42 43 43 42 42 41 41 41 41 41 40 40 40 40 40 40 40 39 38 37 36 36 36 36 36 37 38 39 38 37 37 38 40 42 42 42 42 42 43 42 40 37 36 36 35 35 34 33 33 32 32 32 32 32 32 32 32 32
MSLP
1016.29 1016.37 1016.41 1016.49 1016.57 1016.69 1016.77 1016.77 1016.77 1016.77 1016.81 1016.81 1016.81 1016.85 1016.89 1016.97 1017.01 1017.09 1017.09 1017.09 1017.13 1017.17 1017.13 1017.09 1017.09 1017.13 1017.17 1017.21 1017.25 1017.29 1017.37 1017.37 1017.41 1017.41 1017.49 1017.53 1017.53 1017.57 1017.57 1017.57 1017.61 1017.65 1017.65 1017.65 1017.65 1017.69 1017.73 1017.73 1017.81 1017.85 1017.89 1017.93 1017.97 1017.97 1017.97 1017.93 1017.97 1017.97 1018.01 1018.05 1018.09 1018.09 1018.13 1018.21 1018.25 1018.33 1018.41 1018.45 1018.49
1016.29 1016.37 1016.45 1016.53 1016.65 1016.69 1016.77 1016.81 1016.81 1016.81 1016.81 1016.81 1016.81 1016.85 1016.93 1016.97 1017.05 1017.09 1017.13 1017.13 1017.17 1017.17 1017.17 1017.17 1017.17 1017.21 1017.25 1017.25 1017.33 1017.37 1017.45 1017.45 1017.53 1017.53 1017.53 1017.57 1017.57 1017.61 1017.65 1017.65 1017.65 1017.65 1017.69 1017.69 1017.69 1017.73 1017.77 1017.77 1017.85 1017.89 1017.93 1017.93 1017.97 1017.97 1017.93 1017.93 1017.93 1017.97 1017.97 1017.97 1017.97 1017.97 1018.01 1018.05 1018.09 1018.09 1018.13 1018.25 1018.25
1016.29 1016.37 1016.45 1016.57 1016.69 1016.73 1016.81 1016.85 1016.89 1016.93 1016.89 1016.89 1016.89 1016.89 1016.97 1016.97 1017.09 1017.13 1017.17 1017.17 1017.17 1017.21 1017.25 1017.25 1017.25 1017.25 1017.33 1017.37 1017.37 1017.41 1017.49 1017.53 1017.57 1017.61 1017.65 1017.65 1017.65 1017.65 1017.65 1017.69 1017.69 1017.69 1017.73 1017.77 1017.73 1017.77 1017.81 1017.81 1017.89 1017.93 1017.97 1017.97 1017.97 1017.97 1017.97 1017.89 1017.89 1017.93 1017.93 1017.89 1017.81 1017.81 1017.89 1017.97 1017.93 1017.97 1017.97 1018.01 1018.09
1016.25 1016.37 1016.45 1016.57 1016.65 1016.73 1016.81 1016.81 1016.89 1016.93 1016.93 1016.93 1016.89 1016.93 1016.97 1017.01 1017.09 1017.17 1017.21 1017.25 1017.25 1017.25 1017.29 1017.33 1017.33 1017.37 1017.37 1017.45 1017.49 1017.53 1017.53 1017.57 1017.65 1017.69 1017.73 1017.73 1017.77 1017.73 1017.69 1017.73 1017.73 1017.77 1017.77 1017.77 1017.77 1017.81 1017.85 1017.89 1017.89 1017.97 1017.97 1018.01 1018.05 1018.05 1017.97 1017.93 1017.97 1017.93 1017.85 1017.81 1017.77 1017.77 1017.81 1017.77 1017.81 1017.81 1017.81 1017.89 1017.93
1016.29 1016.37 1016.49 1016.57 1016.65 1016.69 1016.73 1016.81 1016.89 1016.93 1016.93 1016.93 1016.97 1017.05 1017.09 1017.13 1017.17 1017.25 1017.25 1017.33 1017.33 1017.33 1017.37 1017.37 1017.41 1017.45 1017.49 1017.53 1017.57 1017.65 1017.65 1017.65 1017.69 1017.73 1017.77 1017.81 1017.81 1017.77 1017.73 1017.77 1017.77 1017.77 1017.77 1017.81 1017.81 1017.81 1017.85 1017.89 1017.93 1017.97 1017.97 1017.97 1017.97 1017.97 1017.97 1017.97 1017.97 1017.89 1017.81 1017.77 1017.69 1017.69 1017.69 1017.69 1017.69 1017.69 1017.73 1017.81 1017.85
1016.41 1016.49 1016.53 1016.65 1016.69 1016.77 1016.81 1016.93 1016.97 1016.97 1017.01 1017.01 1017.09 1017.13 1017.17 1017.25 1017.25 1017.29 1017.33 1017.41 1017.41 1017.41 1017.41 1017.41 1017.49 1017.53 1017.57 1017.61 1017.65 1017.69 1017.73 1017.73 1017.73 1017.77 1017.77 1017.81 1017.77 1017.73 1017.77 1017.81 1017.81 1017.81 1017.81 1017.81 1017.81 1017.81 1017.85 1017.89 1017.89 1017.93 1017.93 1017.93 1017.89 1017.85 1017.85 1017.85 1017.85 1017.85 1017.81 1017.77 1017.65 1017.65 1017.65 1017.65 1017.65 1017.65 1017.65 1017.81 1017.89
1016.49 1016.57 1016.69 1016.77 1016.81 1016.89 1016.97 1017.05 1017.09 1017.09 1017.09 1017.13 1017.17 1017.25 1017.25 1017.29 1017.33 1017.37 1017.37 1017.41 1017.41 1017.45 1017.49 1017.53 1017.53 1017.61 1017.65 1017.69 1017.73 1017.77 1017.81 1017.77 1017.77 1017.77 1017.77 1017.77 1017.77 1017.81 1017.81 1017.81 1017.81 1017.81 1017.81 1017.81 1017.81 1017.81 1017.85 1017.85 1017.85 1017.85 1017.81 1017.81 1017.81 1017.77 1017.73 1017.69 1017.73 1017.81 1017.81 1017.81 1017.69 1017.65 1017.65 1017.65 1017.61 1017.61 1017.69 1017.81 1017.93
1016.53 1016.65 1016.77 1016.85 1016.97 1017.01 1017.09 1017.13 1017.17 1017.17 1017.21 1017.25 1017.29 1017.29 1017.33 1017.37 1017.37 1017.41 1017.45 1017.45 1017.53 1017.57 1017.57 1017.61 1017.65 1017.65 1017.73 1017.81 1017.81 1017.81 1017.81 1017.81 1017.81 1017.81 1017.81 1017.81 1017.85 1017.85 1017.85 1017.85 1017.89 1017.89 1017.89 1017.89 1017.89 1017.85 1017.81 1017.81 1017.81 1017.81 1017.81 1017.77 1017.73 1017.65 1017.65 1017.61 1017.65 1017.69 1017.69 1017.69 1017.65 1017.65 1017.65 1017.65 1017.65 1017.65 1017.73 1017.81 1017.93
1016.69 1016.73 1016.81 1016.93 1016.97 1017.05 1017.09 1017.21 1017.21 1017.25 1017.29 1017.37 1017.37 1017.37 1017.37 1017.37 1017.41 1017.49 1017.57 1017.61 1017.65 1017.65 1017.65 1017.69 1017.77 1017.81 1017.81 1017.81 1017.85 1017.89 1017.89 1017.89 1017.89 1017.93 1017.93 1017.93 1017.97 1017.97 1017.97 1017.97 1018.01 1018.01 1018.01 1017.97 1017.97 1017.97 1017.97 1017.89 1017.85 1017.81 1017.77 1017.73 1017.69 1017.65 1017.57 1017.57 1017.57 1017.61 1017.61 1017.61 1017.65 1017.65 1017.69 1017.65 1017.69 1017.73 1017.81 1017.85 1017.93
1016.73 1016.81 1016.85 1016.97 1017.01 1017.05 1017.09 1017.13 1017.21 1017.25 1017.29 1017.33 1017.37 1017.37 1017.37 1017.41 1017.49 1017.53 1017.65 1017.69 1017.69 1017.73 1017.81 1017.81 1017.85 1017.89 1017.89 1017.93 1017.97 1017.97 1017.97 1018.01 1018.05 1018.05 1018.05 1018.05 1018.09 1018.09 1018.13 1018.13 1018.17 1018.17 1018.17 1018.17 1018.17 1018.13 1018.09 1018.01 1017.97 1017.89 1017.81 1017.73 1017.65 1017.65 1017.57 1017.57 1017.53 1017.57 1017.57 1017.61 1017.65 1017.69 1017.73 1017.77 1017.81 1017.81 1017.89 1017.93 1017.97
1016.73 1016.77 1016.81 1016.93 1016.97 1017.01 1017.05 1017.09 1017.13 1017.17 1017.25 1017.29 1017.33 1017.37 1017.41 1017.49 1017.53 1017.57 1017.65 1017.73 1017.81 1017.85 1017.85 1017.89 1017.93 1017.97 1018.01 1018.01 1018.09 1018.09 1018.09 1018.09 1018.13 1018.17 1018.21 1018.25 1018.25 1018.25 1018.25 1018.25 1018.25 1018.29 1018.29 1018.33 1018.33 1018.29 1018.25 1018.13 1018.09 1017.97 1017.85 1017.81 1017.73 1017.65 1017.65 1017.57 1017.57 1017.57 1017.61 1017.61 1017.61 1017.69 1017.81 1017.85 1017.89 1017.93 1017.97 1017.97 1018.09
1016.73 1016.77 1016.81 1016.85 1016.93 1016.97 1017.05 1017.09 1017.13 1017.21 1017.25 1017.33 1017.37 1017.41 1017.49 1017.53 1017.61 1017.65 1017.77 1017.81 1017.93 1017.93 1017.93 1017.97 1018.01 1018.09 1018.13 1018.17 1018.21 1018.25 1018.25 1018.25 1018.25 1018.29 1018.29 1018.33 1018.37 1018.37 1018.37 1018.37 1018.37 1018.37 1018.41 1018.41 1018.37 1018.37 1018.33 1018.25 1018.17 1018.09 1018.01 1017.93 1017.81 1017.77 1017.73 1017.65 1017.65 1017.65 1017.65 1017.65 1017.65 1017.73 1017.81 1017.93 1017.97 1018.01 1018.01 1018.05 1018.13
1016.73 1016.81 1016.81 1016.89 1016.93 1017.01 1017.09 1017.17 1017.25 1017.25 1017.33 1017.37 1017.45 1017.53 1017.57 1017.65 1017.73 1017.81 1017.89 1017.97 1017.97 1018.01 1018.05 1018.09 1018.13 1018.21 1018.25 1018.33 1018.33 1018.37 1018.37 1018.37 1018.41 1018.41 1018.45 1018.45 1018.45 1018.49 1018.49 1018.45 1018.45 1018.49 1018.53 1018.49 1018.45 1018.41 1018.37 1018.33 1018.25 1018.21 1018.13 1018.01 1017.93 1017.85 1017.81 1017.77 1017.73 1017.73 1017.69 1017.69 1017.77 1017.81 1017.89 1017.97 1018.05 1018.09 1018.13 1018.17 1018.25
1016.73 1016.81 1016.89 1016.93 1017.01 1017.09 1017.21 1017.29 1017.33 1017.37 1017.41 1017.53 1017.57 1017.65 1017.69 1017.81 1017.85 1017.97 1018.01 1018.09 1018.09 1018.13 1018.17 1018.21 1018.25 1018.29 1018.37 1018.41 1018.41 1018.45 1018.49 1018.49 1018.53 1018.53 1018.53 1018.53 1018.53 1018.53 1018.53 1018.53 1018.53 1018.57 1018.57 1018.53 1018.53 1018.49 1018.45 1018.37 1018.33 1018.29 1018.21 1018.09 1018.05 1017.97 1017.93 1017.85 1017.81 1017.81 1017.81 1017.81 1017.85 1017.93 1017.97 1018.01 1018.09 1018.13 1018.21 1018.33 1018.41
1016.81 1016.85 1016.97 1017.01 1017.09 1017.21 1017.29 1017.37 1017.41 1017.49 1017.53 1017.61 1017.65 1017.73 1017.81 1017.93 1018.01 1018.09 1018.09 1018.17 1018.17 1018.25 1018.29 1018.29 1018.33 1018.37 1018.41 1018.49 1018.53 1018.53 1018.53 1018.57 1018.61 1018.61 1018.65 1018.65 1018.65 1018.65 1018.65 1018.61 1018.61 1018.61 1018.61 1018.57 1018.53 1018.53 1018.53 1018.53 1018.45 1018.37 1018.29 1018.25 1018.17 1018.13 1018.09 1018.01 1017.97 1017.93 1017.93 1017.89 1017.93 1017.97 1018.01 1018.09 1018.17 1018.21 1018.29 1018.37 1018.53
1016.85 1016.93 1016.97 1017.09 1017.21 1017.25 1017.37 1017.45 1017.49 1017.53 1017.65 1017.73 1017.77 1017.85 1017.97 1018.09 1018.13 1018.17 1018.21 1018.25 1018.29 1018.33 1018.37 1018.37 1018.41 1018.49 1018.53 1018.57 1018.65 1018.65 1018.65 1018.69 1018.69 1018.69 1018.73 1018.73 1018.73 1018.73 1018.69 1018.69 1018.69 1018.69 1018.69 1018.65 1018.61 1018.57 1018.57 1018.53 1018.53 1018.45 1018.37 1018.33 1018.25 1018.25 1018.21 1018.17 1018.09 1018.05 1018.05 1018.01 1018.05 1018.09 1018.13 1018.17 1018.25 1018.33 1018.37 1018.49 1018.61
1016.89 1016.97 1017.05 1017.13 1017.25 1017.33 1017.37 1017.49 1017.57 1017.65 1017.73 1017.81 1017.89 1017.97 1018.09 1018.13 1018.21 1018.25 1018.29 1018.33 1018.37 1018.41 1018.41 1018.49 1018.57 1018.61 1018.65 1018.69 1018.73 1018.73 1018.73 1018.73 1018.73 1018.77 1018.77 1018.77 1018.77 1018.77 1018.77 1018.77 1018.77 1018.73 1018.69 1018.69 1018.69 1018.69 1018.65 1018.65 1018.57 1018.53 1018.49 1018.45 1018.37 1018.37 1018.33 1018.33 1018.25 1018.25 1018.25 1018.25 1018.25 1018.25 1018.25 1018.29 1018.37 1018.41 1018.49 1018.57 1018.69
1016.93 1016.97 1017.09 1017.17 1017.29 1017.37 1017.45 1017.53 1017.61 1017.73 1017.81 1017.89 1017.97 1018.09 1018.13 1018.17 1018.25 1018.29 1018.37 1018.41 1018.45 1018.49 1018.53 1018.53 1018.65 1018.69 1018.69 1018.73 1018.77 1018.81 1018.81 1018.81 1018.81 1018.81 1018.81 1018.81 1018.81 1018.81 1018.81 1018.81 1018.81 1018.77 1018.73 1018.73 1018.73 1018.73 1018.69 1018.69 1018.65 1018.61 1018.57 1018.53 1018.53 1018.49 1018.45 1018.45 1018.37 1018.41 1018.41 1018.41 1018.41 1018.41 1018.45 1018.49 1018.49 1018.53 1018.57 1018.69 1018.77
1016.97 1017.05 1017.13 1017.25 1017.33 1017.41 1017.49 1017.57 1017.69 1017.81 1017.85 1017.97 1018.05 1018.13 1018.21 1018.25 1018.33 1018.37 1018.45 1018.53 1018.53 1018.57 1018.57 1018.61 1018.65 1018.69 1018.73 1018.77 1018.81 1018.81 1018.81 1018.81 1018.85 1018.85 1018.85 1018.89 1018.89 1018.89 1018.89 1018.89 1018.85 1018.85 1018.81 1018.81 1018.81 1018.81 1018.77 1018.73 1018.73 1018.69 1018.69 1018.65 1018.65 1018.61 1018.61 1018.57 1018.57 1018.57 1018.57 1018.57 1018.61 1018.61 1018.65 1018.65 1018.65 1018.69 1018.73 1018.81 1018.85
1017.05 1017.09 1017.21 1017.29 1017.37 1017.45 1017.61 1017.73 1017.81 1017.89 1017.97 1018.05 1018.13 1018.25 1018.33 1018.37 1018.45 1018.53 1018.53 1018.61 1018.65 1018.65 1018.65 1018.69 1018.69 1018.77 1018.81 1018.81 1018.81 1018.85 1018.85 1018.89 1018.89 1018.89 1018.93 1018.93 1018.93 1018.93 1018.93 1018.93 1018.93 1018.93 1018.89 1018.89 1018.85 1018.85 1018.85 1018.81 1018.81 1018.77 1018.77 1018.73 1018.73 1018.73 1018.73 1018.73 1018.77 1018.77 1018.77 1018.77 1018.81 1018.81 1018.81 1018.81 1018.81 1018.85 1018.89 1018.97 1018.97
1017.13 1017.17 1017.25 1017.33 1017.45 1017.61 1017.73 1017.85 1017.97 1018.01 1018.09 1018.25 1018.29 1018.37 1018.45 1018.49 1018.53 1018.57 1018.61 1018.69 1018.69 1018.69 1018.69 1018.77 1018.81 1018.81 1018.81 1018.85 1018.89 1018.89 1018.93 1018.97 1018.97 1018.97 1018.97 1018.97 1018.97 1018.97 1018.97 1018.97 1018.97 1018.97 1018.97 1018.97 1018.93 1018.93 1018.93 1018.89 1018.85 1018.81 1018.81 1018.85 1018.85 1018.85 1018.85 1018.89 1018.89 1018.93 1018.93 1018.93 1018.97 1018.97 1018.97 1018.97 1018.97 1019.01 1019.05 1019.09 1019.13
1017.17 1017.21 1017.29 1017.41 1017.57 1017.73 1017.85 1017.97 1018.05 1018.13 1018.25 1018.37 1018.45 1018.49 1018.53 1018.57 1018.61 1018.69 1018.69 1018.73 1018.73 1018.73 1018.77 1018.81 1018.85 1018.85 1018.85 1018.89 1018.93 1018.97 1018.97 1019.01 1019.01 1019.05 1019.05 1019.05 1019.09 1019.09 1019.09 1019.05 1019.05 1019.05 1019.01 1019.01 1019.01 1018.97 1018.97 1018.97 1018.93 1018.93 1018.93 1018.97 1018.97 1018.97 1019.01 1019.01 1019.01 1019.05 1019.09 1019.09 1019.13 1019.13 1019.13 1019.13 1019.17 1019.21 1019.25 1019.29 1019.33
1017.21 1017.29 1017.41 1017.53 1017.69 1017.81 1017.93 1018.05 1018.09 1018.21 1018.33 1018.49 1018.53 1018.57 1018.57 1018.65 1018.69 1018.73 1018.77 1018.77 1018.81 1018.81 1018.85 1018.89 1018.93 1018.93 1018.97 1018.97 1018.97 1018.97 1019.01 1019.05 1019.09 1019.09 1019.09 1019.09 1019.13 1019.13 1019.09 1019.09 1019.09 1019.09 1019.09 1019.05 1019.05 1019.05 1019.05 1019.01 1019.01 1019.01 1019.01 1019.05 1019.09 1019.09 1019.09 1019.09 1019.13 1019.13 1019.17 1019.25 1019.25 1019.29 1019.29 1019.29 1019.37 1019.37 1019.41 1019.45 1019.53
1017.29 1017.41 1017.53 1017.69 1017.81 1017.93 1018.01 1018.09 1018.17 1018.25 1018.41 1018.53 1018.61 1018.65 1018.69 1018.69 1018.73 1018.77 1018.81 1018.81 1018.81 1018.85 1018.89 1018.97 1018.97 1019.01 1019.01 1019.01 1019.05 1019.05 1019.05 1019.05 1019.09 1019.13 1019.13 1019.13 1019.17 1019.17 1019.17 1019.17 1019.13 1019.13 1019.09 1019.09 1019.09 1019.09 1019.09 1019.09 1019.09 1019.09 1019.09 1019.09 1019.17 1019.21 1019.21 1019.21 1019.25 1019.25 1019.25 1019.29 1019.37 1019.37 1019.41 1019.49 1019.49 1019.53 1019.57 1019.65 1019.65
1017.37 1017.53 1017.65 1017.81 1017.89 1017.97 1018.05 1018.09 1018.21 1018.29 1018.41 1018.53 1018.61 1018.69 1018.69 1018.77 1018.77 1018.81 1018.81 1018.81 1018.85 1018.89 1018.93 1019.01 1019.05 1019.09 1019.05 1019.05 1019.09 1019.09 1019.09 1019.09 1019.13 1019.17 1019.21 1019.17 1019.21 1019.21 1019.21 1019.25 1019.21 1019.21 1019.17 1019.09 1019.05 1019.05 1019.09 1019.09 1019.09 1019.09 1019.13 1019.17 1019.25 1019.25 1019.29 1019.29 1019.29 1019.33 1019.37 1019.37 1019.41 1019.49 1019.53 1019.57 1019.65 1019.69 1019.73 1019.81 1019.85
1017.53 1017.65 1017.77 1017.85 1017.97 1018.01 1018.09 1018.13 1018.21 1018.29 1018.37 1018.49 1018.57 1018.65 1018.69 1018.77 1018.81 1018.81 1018.81 1018.81 1018.89 1018.93 1018.97 1019.01 1019.05 1019.09 1019.09 1019.09 1019.09 1019.09 1019.13 1019.13 1019.17 1019.21 1019.25 1019.25 1019.21 1019.21 1019.21 1019.25 1019.25 1019.25 1019.21 1019.09 1019.05 1019.01 1019.05 1019.09 1019.09 1019.13 1019.17 1019.21 1019.25 1019.33 1019.37 1019.37 1019.37 1019.37 1019.41 1019.45 1019.49 1019.53 1019.57 1019.65 1019.77 1019.85 1019.97 1019.97 1019.97
1017.61 1017.73 1017.81 1017.89 1017.97 1018.01 1018.05 1018.09 1018.21 1018.29 1018.37 1018.49 1018.53 1018.61 1018.65 1018.73 1018.73 1018.81 1018.81 1018.85 1018.85 1018.93 1018.97 1019.01 1019.05 1019.09 1019.09 1019.13 1019.13 1019.17 1019.21 1019.21 1019.21 1019.21 1019.25 1019.25 1019.21 1019.17 1019.21 1019.25 1019.25 1019.25 1019.21 1019.09 1019.01 1018.97 1019.01 1019.05 1019.09 1019.17 1019.21 1019.25 1019.25 1019.33 1019.37 1019.41 1019.41 1019.45 1019.49 1019.53 1019.57 1019.61 1019.65 1019.77 1019.85 1019.97 1020.01 1020.09 1020.13
1017.65 1017.73 1017.81 1017.89 1017.97 1018.01 1018.05 1018.13 1018.21 1018.29 1018.37 1018.45 1018.53 1018.61 1018.65 1018.69 1018.73 1018.77 1018.81 1018.81 1018.81 1018.89 1018.93 1018.97 1019.01 1019.05 1019.09 1019.09 1019.13 1019.17 1019.21 1019.25 1019.25 1019.25 1019.25 1019.25 1019.21 1019.17 1019.21 1019.25 1019.25 1019.25 1019.17 1019.09 1019.01 1018.97 1018.97 1019.01 1019.09 1019.13 1019.21 1019.29 1019.33 1019.37 1019.37 1019.45 1019.45 1019.53 1019.53 1019.57 1019.65 1019.69 1019.81 1019.85 1019.97 1020.01 1020.09 1020.21 1020.25
1017.65 1017.73 1017.81 1017.93 1017.97 1017.97 1018.09 1018.17 1018.25 1018.29 1018.37 1018.45 1018.53 1018.57 1018.65 1018.69 1018.69 1018.77 1018.81 1018.81 1018.81 1018.89 1018.93 1018.97 1018.97 1019.01 1019.05 1019.09 1019.09 1019.13 1019.17 1019.21 1019.21 1019.25 1019.25 1019.25 1019.25 1019.25 1019.25 1019.25 1019.25 1019.25 1019.17 1019.09 1019.05 1019.09 1019.09 1019.09 1019.09 1019.17 1019.25 1019.33 1019.37 1019.41 1019.45 1019.49 1019.49 1019.53 1019.57 1019.65 1019.69 1019.81 1019.85 1019.97 1020.01 1020.09 1020.13 1020.25 1020.25
1017.61 1017.73 1017.81 1017.97 1017.97 1018.05 1018.09 1018.17 1018.25 1018.29 1018.33 1018.41 1018.53 1018.57 1018.61 1018.69 1018.69 1018.73 1018.77 1018.81 1018.81 1018.89 1018.93 1018.97 1018.97 1018.97 1019.01 1019.09 1019.09 1019.13 1019.17 1019.21 1019.21 1019.21 1019.21 1019.25 1019.25 1019.25 1019.29 1019.29 1019.25 1019.25 1019.17 1019.09 1019.09 1019.13 1019.17 1019.21 1019.21 1019.25 1019.29 1019.33 1019.37 1019.41 1019.45 1019.53 1019.53 1019.61 1019.65 1019.73 1019.77 1019.81 1019.93 1020.01 1020.09 1020.17 1020.21 1020.25 1020.29
1017.61 1017.73 1017.81 1017.97 1018.01 1018.09 1018.13 1018.25 1018.25 1018.33 1018.37 1018.45 1018.49 1018.53 1018.61 1018.65 1018.69 1018.69 1018.73 1018.81 1018.85 1018.89 1018.93 1018.97 1018.97 1019.01 1019.05 1019.09 1019.09 1019.17 1019.21 1019.21 1019.21 1019.17 1019.17 1019.21 1019.21 1019.25 1019.29 1019.29 1019.25 1019.25 1019.21 1019.17 1019.17 1019.21 1019.25 1019.29 1019.33 1019.33 1019.37 1019.37 1019.37 1019.45 1019.53 1019.57 1019.61 1019.65 1019.69 1019.81 1019.81 1019.93 1020.01 1020.09 1020.13 1020.21 1020.25 1020.29 1020.33
1017.57 1017.69 1017.81 1017.97 1018.05 1018.09 1018.21 1018.25 1018.29 1018.37 1018.37 1018.45 1018.49 1018.53 1018.53 1018.53 1018.65 1018.69 1018.73 1018.81 1018.85 1018.89 1018.93 1018.97 1018.97 1019.05 1019.09 1019.13 1019.13 1019.17 1019.21 1019.21 1019.21 1019.21 1019.21 1019.21 1019.21 1019.25 1019.25 1019.33 1019.33 1019.29 1019.25 1019.25 1019.25 1019.25 1019.33 1019.37 1019.37 1019.37 1019.41 1019.45 1019.49 1019.53 1019.65 1019.65 1019.69 1019.73 1019.77 1019.81 1019.89 1019.97 1020.05 1020.13 1020.17 1020.25 1020.25 1020.29 1020.37
1017.53 1017.65 1017.81 1017.93 1018.01 1018.13 1018.25 1018.29 1018.29 1018.37 1018.37 1018.41 1018.45 1018.45 1018.49 1018.53 1018.65 1018.69 1018.77 1018.81 1018.85 1018.93 1018.97 1018.97 1019.01 1019.09 1019.09 1019.13 1019.13 1019.17 1019.21 1019.21 1019.21 1019.25 1019.25 1019.25 1019.25 1019.25 1019.29 1019.33 1019.37 1019.37 1019.33 1019.29 1019.33 1019.37 1019.41 1019.45 1019.49 1019.53 1019.53 1019.53 1019.57 1019.65 1019.69 1019.73 1019.77 1019.81 1019.89 1019.93 1019.97 1019.97 1020.05 1020.09 1020.17 1020.21 1020.25 1020.25 1020.37
1017.53 1017.65 1017.81 1017.93 1018.01 1018.13 1018.25 1018.25 1018.29 1018.33 1018.37 1018.37 1018.37 1018.41 1018.49 1018.57 1018.69 1018.73 1018.81 1018.85 1018.85 1018.93 1018.97 1019.01 1019.01 1019.09 1019.09 1019.13 1019.13 1019.21 1019.25 1019.25 1019.25 1019.25 1019.29 1019.29 1019.33 1019.33 1019.37 1019.41 1019.41 1019.41 1019.41 1019.37 1019.41 1019.45 1019.49 1019.53 1019.53 1019.57 1019.65 1019.65 1019.73 1019.77 1019.77 1019.81 1019.85 1019.93 1019.97 1019.97 1020.05 1020.09 1020.09 1020.13 1020.13 1020.17 1020.21 1020.25 1020.33
1017.49 1017.65 1017.81 1017.89 1018.01 1018.09 1018.21 1018.25 1018.25 1018.29 1018.37 1018.37 1018.37 1018.45 1018.53 1018.61 1018.69 1018.77 1018.81 1018.85 1018.89 1018.97 1018.97 1019.01 1019.05 1019.09 1019.09 1019.13 1019.21 1019.25 1019.25 1019.29 1019.33 1019.33 1019.33 1019.33 1019.37 1019.37 1019.45 1019.49 1019.49 1019.49 1019.45 1019.45 1019.53 1019.53 1019.57 1019.65 1019.65 1019.69 1019.77 1019.81 1019.81 1019.85 1019.89 1019.89 1019.97 1020.01 1020.09 1020.09 1020.13 1020.17 1020.13 1020.13 1020.17 1020.17 1020.21 1020.25 1020.33
1017.49 1017.61 1017.77 1017.89 1017.97 1018.09 1018.17 1018.25 1018.25 1018.29 1018.33 1018.37 1018.37 1018.45 1018.53 1018.69 1018.69 1018.77 1018.81 1018.89 1018.93 1018.97 1019.01 1019.05 1019.09 1019.09 1019.17 1019.25 1019.25 1019.29 1019.33 1019.33 1019.37 1019.37 1019.37 1019.37 1019.41 1019.45 1019.53 1019.53 1019.57 1019.53 1019.53 1019.53 1019.61 1019.65 1019.69 1019.73 1019.77 1019.81 1019.85 1019.89 1019.93 1019.97 1019.97 1019.97 1020.05 1020.09 1020.17 1020.25 1020.25 1020.25 1020.25 1020.25 1020.25 1020.25 1020.25 1020.29 1020.37
1017.53 1017.61 1017.73 1017.89 1018.01 1018.09 1018.17 1018.25 1018.29 1018.33 1018.33 1018.37 1018.37 1018.49 1018.61 1018.69 1018.77 1018.81 1018.85 1018.93 1018.97 1019.01 1019.05 1019.09 1019.13 1019.17 1019.25 1019.29 1019.33 1019.37 1019.37 1019.37 1019.41 1019.45 1019.49 1019.45 1019.49 1019.53 1019.53 1019.61 1019.65 1019.65 1019.65 1019.65 1019.69 1019.77 1019.81 1019.85 1019.85 1019.89 1019.93 1019.97 1019.97 1020.01 1020.05 1020.09 1020.13 1020.21 1020.25 1020.33 1020.37 1020.37 1020.37 1020.37 1020.37 1020.37 1020.41 1020.41 1020.45
1017.53 1017.61 1017.73 1017.89 1018.01 1018.09 1018.21 1018.25 1018.29 1018.33 1018.33 1018.37 1018.41 1018.53 1018.61 1018.69 1018.81 1018.85 1018.89 1018.93 1018.97 1019.05 1019.09 1019.13 1019.21 1019.25 1019.29 1019.33 1019.37 1019.41 1019.45 1019.53 1019.53 1019.57 1019.57 1019.57 1019.57 1019.57 1019.61 1019.65 1019.69 1019.77 1019.77 1019.77 1019.81 1019.89 1019.97 1019.97 1019.97 1019.97 1019.97 1020.01 1020.05 1020.05 1020.09 1020.17 1020.25 1020.29 1020.37 1020.37 1020.45 1020.49 1020.49 1020.53 1020.53 1020.57 1020.61 1020.53 1020.49
1017.53 1017.65 1017.77 1017.85 1017.97 1018.09 1018.21 1018.29 1018.33 1018.33 1018.33 1018.37 1018.41 1018.53 1018.65 1018.69 1018.81 1018.89 1018.93 1018.97 1019.05 1019.09 1019.17 1019.21 1019.25 1019.33 1019.37 1019.37 1019.45 1019.53 1019.57 1019.65 1019.65 1019.69 1019.69 1019.69 1019.69 1019.65 1019.65 1019.73 1019.81 1019.85 1019.89 1019.89 1019.93 1019.97 1020.05 1020.05 1020.01 1019.97 1019.97 1020.01 1020.05 1020.09 1020.13 1020.21 1020.29 1020.37 1020.41 1020.49 1020.53 1020.57 1020.61 1020.65 1020.69 1020.69 1020.73 1020.69 1020.57
1017.61 1017.65 1017.77 1017.85 1017.97 1018.09 1018.21 1018.29 1018.33 1018.33 1018.33 1018.37 1018.45 1018.53 1018.65 1018.73 1018.81 1018.93 1018.97 1019.05 1019.09 1019.13 1019.21 1019.29 1019.37 1019.41 1019.45 1019.49 1019.53 1019.65 1019.69 1019.77 1019.81 1019.81 1019.81 1019.81 1019.81 1019.81 1019.81 1019.81 1019.89 1019.97 1019.97 1019.97 1020.05 1020.09 1020.09 1020.09 1020.09 1020.05 1020.01 1020.05 1020.05 1020.09 1020.17 1020.25 1020.33 1020.41 1020.49 1020.57 1020.61 1020.69 1020.73 1020.73 1020.77 1020.81 1020.81 1020.81 1020.77
1017.61 1017.69 1017.77 1017.85 1017.97 1018.05 1018.17 1018.25 1018.33 1018.37 1018.37 1018.37 1018.45 1018.53 1018.61 1018.73 1018.81 1018.97 1019.01 1019.09 1019.17 1019.25 1019.29 1019.37 1019.41 1019.49 1019.53 1019.61 1019.65 1019.73 1019.81 1019.89 1019.93 1019.97 1019.97 1019.93 1019.93 1019.93 1019.93 1019.97 1019.97 1020.01 1020.05 1020.09 1020.09 1020.13 1020.13 1020.13 1020.13 1020.09 1020.05 1020.05 1020.05 1020.09 1020.13 1020.25 1020.37 1020.45 1020.53 1020.65 1020.69 1020.73 1020.81 1020.85 1020.89 1020.93 1020.93 1020.97 1020.97
Wind_Speed
3 3 3 2 2 2 2 2 2 2 1 1 1 1 2 2 1 1 1 1 1 1 1 1 1 2 2 3 3 3 2 2 2 2 2 2 2 2 2 2 2 2 2 2 2 2 2 2 2 2 2 2 2 2 3 2 3 3 3 4 4 5 6 7 7 8 9 9 8
4 4 3 3 2 2 2 2 2 1 1 1 1 1 2 2 1 1 1 1 1 1 1 1 2 2 2 3 3 3 2 2 2 2 2 2 2 2 2 2 2 2 2 2 2 2 2 2 2 2 2 2 2 3 3 3 3 4 4 5 4 4 4 6 7 8 9 9 8
3 4 3 3 2 2 2 2 2 1 1 1 1 1 2 2 1 1 1 1 1 1 2 1 2 2 2 2 2 2 2 2 2 2 2 2 2 2 2 2 2 2 1 1 1 1 1 1 1 2 2 2 3 3 3 4 3 4 5 6 5 4 4 4 5 6 6 6 7
3 3 3 2 2 2 2 2 2 2 2 2 1 2 2 2 1 1 1 1 1 1 1 1 1 2 2 2 2 2 2 2 2 2 2 2 2 3 3 2 2 2 2 1 1 1 1 1 1 1 2 2 3 3 4 3 3 4 4 4 4 4 4 4 4 4 3 4 5
3 3 3 2 2 2 2 2 1 1 1 2 2 2 2 1 1 1 1 1 0 0 1 1 1 1 2 2 2 2 2 1 1 1 2 2 3 3 3 3 2 2 2 1 1 2 2 2 2 2 2 3 3 3 4 4 4 4 4 3 3 3 3 3 3 2 2 2 2
3 3 3 3 4 3 3 3 3 3 2 2 2 2 1 1 1 1 1 1 0 1 1 2 2 2 2 2 1 1 1 2 2 2 2 3 3 3 3 2 2 1 1 2 2 3 3 3 3 3 3 3 4 4 5 5 5 5 4 4 4 3 3 3 2 2 2 2 2
3 3 3 3 3 3 2 2 3 3 3 3 2 2 1 1 1 1 1 1 1 2 2 2 2 2 2 1 1 2 2 2 2 2 3 2 2 1 1 1 1 2 2 2 3 3 4 4 3 3 3 3 4 4 5 5 5 5 5 5 4 3 2 2 1 2 2 3 3
3 3 3 3 2 2 2 1 1 2 2 2 1 1 1 2 2 3 3 3 2 2 2 2 2 2 1 1 2 2 2 2 2 2 2 2 3 3 3 3 3 3 3 3 3 3 3 3 3 3 3 3 3 3 4 5 5 5 5 5 3 2 1 0 1 2 2 4 4
3 3 3 3 3 3 3 2 2 1 1 1 0 0 1 2 2 3 3 2 2 2 2 2 2 2 1 1 2 2 2 2 2 3 3 4 4 4 4 4 4 4 4 5 5 5 5 3 3 2 3 3 3 3 4 4 4 4 4 4 2 0 1 1 1 1 2 3 4
3 3 3 3 3 3 3 2 2 2 2 1 1 0 1 2 2 1 1 1 1 2 1 1 1 2 2 2 2 2 2 2 3 3 3 3 3 3 3 3 4 4 5 5 5 6 6 4 4 4 3 3 3 4 4 3 3 3 3 2 1 1 1 1 1 1 1 2 3
3 3 3 3 3 2 2 2 2 1 1 1 1 1 1 1 1 1 1 1 1 1 1 1 2 3 3 3 4 4 4 4 3 3 3 3 3 3 3 3 3 4 4 4 4 4 4 4 5 5 5 4 4 4 4 3 3 2 2 1 2 2 2 1 1 1 2 2 3
3 2 2 2 3 2 2 1 1 1 1 1 1 1 1 2 2 2 2 2 1 1 1 3 4 4 4 4 4 4 4 4 4 4 3 3 3 3 3 3 3 3 3 4 3 3 3 4 4 5 6 6 5 4 3 3 3 2 2 1 2 2 3 2 2 2 2 3 4
3 2 2 2 3 2 2 1 1 1 1 1 1 2 2 3 3 3 3 3 2 2 2 3 3 3 3 3 3 3 3 3 4 4 3 3 3 3 3 3 3 3 3 3 3 3 3 4 4 5 5 5 4 3 3 3 2 2 2 2 2 3 3 3 3 3 3 4 5
2 2 2 2 2 2 1 1 1 1 2 2 2 3 3 4 4 3 3 3 3 2 2 2 3 3 3 3 3 3 3 3 3 3 3 3 3 3 3 3 3 3 2 2 2 2 3 3 4 4 4 4 3 3 3 3 2 1 2 3 3 3 3 3 3 4 4 5 5
2 2 2 2 2 2 1 1 1 1 2 2 3 3 3 3 3 3 3 3 3 3 3 2 3 3 3 3 3 3 3 3 2 2 2 2 2 2 2 2 2 2 2 2 2 2 2 3 3 3 3 2 2 3 3 3 2 1 1 2 3 4 4 4 4 4 5 6 6
2 2 2 2 2 2 1 1 1 2 2 3 3 3 3 3 3 3 3 3 3 2 2 2 3 3 3 3 2 2 2 2 2 1 1 2 2 2 2 2 2 2 2 2 2 2 2 2 3 3 2 2 2 3 3 3 3 3 3 3 3 3 4 4 4 4 5 6 6
2 2 2 2 2 2 1 1 2 2 3 3 4 4 3 3 3 3 3 3 2 2 2 2 2 2 2 2 1 1 1 1 1 1 1 1 2 2 2 2 2 2 2 2 2 2 2 2 2 3 3 3 3 3 3 3 4 4 4 4 4 4 4 4 4 5 5 6 6
2 2 2 2 2 2 2 2 3 3 3 4 4 4 3 3 3 3 3 3 2 2 2 2 2 1 1 1 1 1 1 1 1 1 2 2 2 2 2 2 2 2 2 2 2 2 2 2 2 3 3 3 3 3 3 4 4 4 4 4 4 4 4 4 4 5 5 6 6
1 2 2 2 2 2 3 4 4 4 4 4 4 4 3 3 3 3 3 2 2 2 2 2 2 2 1 1 1 1 1 1 1 2 2 2 2 2 2 2 2 2 2 2 2 2 2 2 2 3 3 3 3 4 4 4 4 4 5 5 5 5 4 4 4 5 5 5 5
1 2 2 2 3 4 5 5 4 4 4 4 4 4 3 3 3 2 2 2 2 2 2 2 2 2 1 1 1 1 1 1 1 2 2 2 2 1 1 1 2 2 2 2 2 2 2 2 2 2 3 3 4 4 4 4 4 5 5 5 5 5 5 5 5 5 5 5 5
0 1 3 4 4 5 5 4 3 4 4 4 4 3 3 2 2 2 2 2 2 1 2 2 2 1 1 1 1 1 1 1 1 2 2 2 2 2 2 2 2 2 2 2 2 2 2 2 2 3 3 4 4 4 4 4 4 5 5 5 5 5 5 5 5 6 6 5 5
1 2 4 5 5 5 4 3 3 4 4 4 3 2 2 2 2 2 2 2 1 1 2 2 2 1 1 1 1 2 2 1 2 2 2 2 2 2 2 2 2 2 2 2 2 2 2 2 3 3 3 4 4 4 4 4 5 5 5 5 5 6 6 6 6 6 6 6 6
2 4 5 6 5 4 4 3 3 4 4 4 3 2 2 2 2 2 2 1 2 2 2 2 2 2 2 1 1 2 2 2 2 2 2 2 2 2 2 2 2 2 2 2 2 2 2 2 3 3 4 4 4 4 4 5 5 5 5 6 6 6 5 5 6 6 6 6 6
4 5 5 4 4 4 3 3 3 4 4 3 3 2 2 2 2 2 2 2 2 2 2 2 2 2 2 1 1 1 2 2 2 2 2 2 2 1 1 2 2 1 1 1 2 2 2 2 3 3 3 4 4 4 4 4 4 5 5 6 6 5 5 5 5 5 5 6 5
5 5 4 3 3 3 3 3 4 4 4 4 3 3 3 2 2 1 1 2 2 3 3 2 2 1 1 1 1 1 1 2 2 2 2 2 2 2 2 1 1 1 1 1 3 5 5 4 4 3 3 3 4 4 4 4 4 4 5 5 5 5 5 5 5 5 5 5 5
5 4 4 3 3 3 3 4 4 4 4 3 3 3 3 2 2 1 1 2 3 3 3 3 2 2 1 1 1 1 1 1 2 2 2 2 2 2 2 2 1 0 1 2 5 6 7 7 6 5 4 3 3 4 4 4 4 4 4 5 5 5 5 5 5 6 6 5 5
4 4 4 3 3 3 3 4 4 4 3 3 3 3 3 2 2 2 2 2 3 3 3 3 2 2 2 1 1 1 1 1 1 1 2 2 2 2 2 2 1 1 1 3 5 6 7 8 8 7 5 3 3 3 3 3 3 3 4 4 4 5 5 6 6 6 6 6 5
4 4 4 3 3 3 3 4 4 4 3 3 3 3 2 2 2 2 2 2 2 3 3 2 2 2 1 1 2 2 1 1 1 1 1 1 2 2 2 2 1 1 2 3 5 6 7 8 8 8 6 4 3 3 3 3 3 3 3 3 4 4 5 5 5 6 6 6 6
4 4 4 3 3 3 3 3 4 4 4 3 3 3 3 2 2 2 2 2 2 2 2 2 2 1 1 1 1 2 2 1 1 1 1 1 2 2 2 2 1 2 3 4 5 6 7 7 8 8 7 5 3 2 2 2 2 3 3 3 3 4 4 5 5 5 5 6 5
4 4 4 3 3 3 3 3 3 3 3 3 3 3 2 2 2 2 2 2 2 2 2 2 1 1 1 1 1 1 1 1 1 2 2 2 2 2 2 2 1 2 3 4 5 6 6 7 7 7 7 6 4 3 2 2 2 3 3 3 3 4 4 5 5 5 5 4 4
4 4 4 4 3 3 3 3 3 3 3 3 3 3 3 3 2 2 2 2 2 2 2 1 1 2 2 2 2 1 1 0 0 1 2 2 3 3 3 2 2 2 3 5 6 6 6 6 6 6 6 6 4 3 3 3 3 3 3 3 3 3 4 4 4 5 4 4 4
4 4 4 4 4 3 3 3 3 2 2 3 3 3 3 3 2 2 2 2 2 2 1 1 1 2 2 2 2 1 1 1 1 1 1 2 3 3 3 3 2 2 3 5 6 6 6 6 6 6 6 6 4 4 3 3 3 3 3 2 2 2 3 3 4 4 4 4 5
5 5 5 4 4 4 3 3 3 2 2 2 2 2 2 3 3 2 2 2 2 2 1 1 1 2 2 2 2 1 1 1 1 2 2 2 3 3 3 3 2 2 4 5 6 7 7 6 6 6 6 6 5 4 3 3 3 3 2 2 1 1 2 3 3 4 4 5 5
5 5 5 5 4 4 3 3 3 2 2 2 2 2 2 3 3 3 2 2 1 1 1 1 1 1 2 2 2 2 2 2 2 2 2 2 3 3 3 2 2 2 4 6 6 7 7 6 6 6 6 6 4 4 3 3 3 3 2 2 2 1 1 1 2 3 4 5 5
5 5 5 4 4 4 4 3 3 3 3 3 2 2 2 3 3 2 2 2 2 1 1 1 1 1 1 2 2 2 2 2 2 2 2 2 3 3 3 2 2 3 4 6 6 7 7 6 6 6 6 5 3 3 3 4 3 3 3 3 3 3 3 3 2 2 2 4 5
4 5 5 4 4 4 4 3 3 3 3 2 2 3 3 3 2 2 2 2 2 2 2 2 2 2 2 2 2 2 2 2 2 2 2 2 3 3 3 3 2 3 5 6 6 6 6 6 5 5 4 3 2 2 3 3 3 3 3 3 3 3 3 4 4 4 4 4 4
4 4 4 4 4 4 3 3 3 3 2 3 3 3 3 3 2 2 2 2 2 2 2 2 2 2 2 2 2 2 2 3 3 3 3 3 2 3 3 3 2 3 5 6 6 6 6 5 4 4 3 2 2 2 2 3 3 3 3 3 2 2 3 4 5 5 5 5 4
4 4 4 4 4 4 3 3 3 3 3 3 3 3 3 3 2 2 2 2 2 2 2 2 2 2 2 3 3 3 4 4 4 4 4 4 3 2 3 3 3 3 4 6 6 5 5 4 4 3 3 1 1 2 2 3 3 3 3 3 2 2 3 4 4 4 5 5 5
4 4 4 4 4 4 4 3 3 3 3 3 3 3 3 3 2 2 2 2 2 2 2 2 2 2 3 3 3 4 5 5 5 5 5 4 3 3 3 4 4 4 4 5 5 4 4 3 3 3 2 1 1 2 2 3 3 3 3 2 2 2 3 3 3 3 3 4 6
4 3 4 4 4 4 4 4 3 3 3 3 3 3 3 3 3 2 2 2 2 2 3 3 3 3 3 4 4 4 4 4 4 4 4 3 3 4 4 4 4 4 4 5 4 4 3 3 2 2 2 1 1 2 2 3 3 3 3 2 2 2 2 3 3 3 3 3 5
3 3 4 4 4 5 4 4 4 3 3 3 3 3 3 4 3 3 2 2 2 3 3 3 3 4 4 4 4 4 4 3 3 3 3 3 3 4 4 4 4 4 3 4 3 3 3 3 2 2 3 2 0 1 2 3 3 3 3 2 2 2 2 2 2 2 2 2 2
Wind_Direction
115 111 101 93 96 99 98 91 76 66 61 65 85 98 105 105 105 101 91 86 86 81 72 63 59 54 49 47 49 45 36 25 17 10 3 353 336 327 323 322 322 319 314 309 307 306 303 300 296 290 282 275 275 272 270 265 263 255 244 231 224 218 215 214 216 215 213 212 212
108 103 98 93 96 102 104 102 94 90 85 74 86 97 100 105 105 102 94 98 99 79 62 47 44 44 45 41 43 42 34 18 6 358 352 342 332 325 320 311 303 295 288 285 286 287 288 289 287 282 279 276 274 271 267 261 259 258 256 250 242 231 220 216 215 213 212 212 211
111 108 109 111 115 118 121 125 135 146 156 156 119 96 92 92 91 84 75 64 66 64 60 49 42 43 44 40 38 37 31 17 2 352 345 335 329 326 322 315 308 299 291 281 279 278 278 281 278 276 275 275 272 270 268 267 262 258 256 253 251 245 236 228 220 214 210 210 208
106 108 113 120 125 129 133 139 153 161 162 149 119 96 88 88 86 78 59 36 48 60 71 72 51 46 45 41 30 21 13 5 353 340 326 316 311 307 305 305 304 302 303 310 313 306 300 294 284 274 269 268 268 266 266 269 268 264 258 254 251 247 243 239 229 218 208 204 202
80 77 74 72 68 64 60 60 70 82 96 101 98 96 93 96 97 91 77 52 52 89 99 90 70 52 40 36 21 4 348 333 318 303 288 280 275 274 274 276 277 282 294 310 307 300 292 285 276 266 261 260 260 261 261 264 266 266 264 263 255 248 241 237 227 209 188 179 177
78 69 63 57 50 43 36 30 31 30 34 46 63 76 86 99 107 117 129 154 145 80 67 66 60 46 30 17 359 335 312 295 280 267 259 256 254 251 251 254 258 268 279 284 279 272 266 261 258 254 250 249 252 254 255 258 260 263 265 266 261 253 241 228 208 175 150 142 136
107 100 91 83 73 64 52 39 34 32 32 34 41 43 43 43 56 70 79 77 55 48 47 50 45 34 18 359 337 316 300 286 275 265 260 260 267 276 289 298 301 296 287 275 269 262 255 248 248 247 246 242 245 248 249 249 251 254 257 260 259 255 243 224 188 153 143 145 139
122 122 121 118 117 113 105 87 68 53 44 41 37 29 24 25 30 33 35 38 36 34 34 34 26 14 359 342 323 312 306 303 306 318 334 353 358 357 353 347 340 331 322 315 306 295 282 265 254 249 248 246 246 246 246 245 246 248 251 253 256 259 253 188 136 137 147 155 152
129 131 134 136 141 143 142 137 131 122 111 92 76 47 42 41 37 37 37 37 29 25 22 15 2 353 343 332 316 313 318 331 350 3 8 10 5 0 356 354 351 349 347 346 341 333 324 313 296 277 265 259 257 255 252 248 247 248 249 249 248 271 35 43 77 121 155 169 164
129 133 136 140 143 143 140 139 141 142 142 151 169 136 91 76 65 63 62 60 39 22 6 343 352 359 1 357 355 360 7 14 20 19 15 10 3 358 357 359 359 358 355 353 346 338 331 323 311 301 292 283 276 271 267 261 256 254 252 238 170 124 90 46 75 156 187 192 170
115 119 122 123 122 118 115 117 129 135 138 151 161 139 117 114 114 110 97 81 56 17 342 6 34 32 26 18 16 17 18 17 17 16 13 7 2 0 1 7 9 6 359 350 340 331 324 317 312 309 307 306 300 295 292 290 283 274 263 205 143 140 142 137 147 170 177 171 150
98 96 95 94 91 86 81 77 89 113 124 133 123 110 104 100 90 77 67 58 44 24 25 42 46 42 34 23 18 17 17 15 12 9 8 4 4 3 5 12 19 15 4 347 334 324 318 315 318 318 317 314 314 314 314 314 302 287 269 192 151 155 161 161 154 150 145 140 137
90 87 85 85 80 75 67 50 41 65 87 97 83 74 70 67 62 55 48 38 28 27 36 47 52 50 42 28 19 15 14 13 9 7 4 4 6 4 3 9 19 18 7 345 334 329 326 323 326 323 320 318 323 329 333 329 305 279 252 206 179 171 166 157 144 134 129 129 135
90 89 86 83 83 79 73 55 44 52 63 71 68 65 64 63 60 54 47 35 27 27 33 41 51 54 49 33 20 11 8 8 6 3 1 3 7 6 4 5 13 13 3 344 340 341 341 336 332 327 324 327 341 351 356 355 329 277 227 194 179 168 157 146 139 135 132 133 136
94 94 93 87 86 85 83 76 67 64 65 69 68 67 65 64 64 60 52 38 31 28 27 27 38 46 46 36 18 5 360 0 0 358 358 1 9 10 9 5 8 6 357 344 347 354 355 346 338 336 339 354 7 13 16 19 25 46 106 140 144 142 137 134 133 133 135 137 136
105 104 102 97 96 96 96 96 88 81 77 76 71 67 63 61 60 57 51 40 32 27 27 30 37 42 43 39 20 3 352 351 353 357 2 8 17 20 18 11 7 1 356 352 1 7 5 356 351 353 1 18 28 32 34 37 44 54 66 82 96 106 114 120 122 126 129 133 133
115 111 108 107 108 111 112 105 91 84 80 77 71 65 61 57 57 58 55 47 34 27 34 50 52 53 53 57 40 12 355 352 3 20 27 23 27 30 26 16 7 2 5 16 22 18 12 8 9 15 23 36 44 47 50 54 59 62 66 69 76 84 94 103 110 117 121 124 128
114 112 110 111 117 119 109 90 79 73 71 71 69 66 60 54 56 60 62 57 37 30 43 70 71 68 66 81 78 57 26 14 36 46 47 38 35 33 30 20 12 12 19 31 34 30 23 20 27 34 41 48 53 57 59 64 67 69 71 71 73 76 81 90 100 109 116 120 123
106 111 113 117 118 103 88 78 72 67 64 65 66 63 57 51 53 57 63 62 44 35 43 71 75 66 55 63 81 77 61 41 56 62 63 54 46 40 37 33 28 29 32 38 38 37 36 37 45 53 58 61 63 64 66 69 72 73 73 73 73 74 77 81 89 97 106 113 117
91 113 117 115 95 82 76 74 70 66 63 62 63 63 61 55 58 63 68 70 62 56 60 72 77 74 66 63 86 90 81 64 71 74 73 65 56 51 48 52 49 44 43 45 43 43 46 53 60 66 71 73 73 72 72 73 74 74 74 74 72 72 73 75 79 83 89 95 101
93 110 106 94 83 78 76 76 75 73 72 70 69 71 73 72 75 76 76 75 77 83 88 94 103 110 115 114 110 102 95 81 79 80 80 74 65 60 57 62 62 58 53 49 47 51 59 67 72 75 78 79 79 79 79 79 78 77 75 75 73 71 71 72 73 75 77 79 83
108 92 88 85 83 82 82 83 86 89 89 89 89 91 92 90 86 85 84 83 83 86 88 95 101 110 115 116 114 112 108 100 92 88 86 79 70 62 64 70 74 71 65 57 51 54 64 76 79 80 82 83 83 85 87 88 86 84 82 79 76 74 71 70 71 72 73 74 76
90 83 83 87 89 90 92 96 105 107 106 108 111 109 103 96 96 100 108 118 107 97 90 84 80 84 90 93 103 116 122 121 112 102 95 88 78 71 68 76 80 81 80 76 70 68 74 83 85 86 87 88 88 89 92 94 94 93 90 87 83 79 75 73 73 73 73 72 73
89 85 87 93 100 106 114 125 129 123 119 120 120 114 105 97 98 111 129 135 119 107 96 87 84 87 94 98 104 121 131 130 123 119 113 109 106 98 86 75 74 77 85 101 111 111 107 102 97 95 94 94 92 92 93 96 98 99 99 97 95 91 86 83 80 78 76 75 74
95 93 94 100 111 123 135 145 140 132 125 125 122 117 111 105 103 119 142 137 122 112 103 93 87 83 83 93 101 112 121 120 121 123 127 131 131 120 105 87 78 74 101 129 131 128 125 119 113 107 101 99 98 96 96 96 101 104 106 107 106 104 100 94 88 83 80 78 80
102 103 105 109 122 138 147 147 137 130 125 124 121 119 119 121 135 157 164 143 131 126 121 114 104 94 86 82 80 74 78 96 121 136 147 151 136 121 108 99 97 101 152 149 139 133 129 123 118 114 109 106 106 106 105 105 107 110 112 112 112 111 108 103 96 91 88 88 90
109 114 119 124 141 152 151 141 130 125 123 122 121 122 126 135 152 165 166 151 145 141 135 128 122 118 115 111 101 93 85 89 137 151 155 151 132 121 115 114 123 167 177 160 142 135 130 126 121 119 115 111 114 115 116 117 117 117 116 116 114 113 111 110 108 106 105 104 104
122 126 129 136 154 157 149 135 130 130 130 129 129 130 134 142 157 165 165 158 150 141 132 124 127 132 137 137 135 134 135 139 139 136 132 126 118 117 120 125 140 171 174 160 141 133 128 126 124 123 121 117 115 117 120 121 120 117 115 116 117 117 117 117 117 118 120 122 123
131 132 135 146 154 148 136 130 133 135 136 134 132 133 138 151 163 168 167 163 144 128 119 119 130 137 141 137 134 133 136 140 143 139 127 114 105 106 111 121 140 161 161 148 132 125 123 123 124 123 122 119 114 110 112 111 108 106 106 110 116 121 123 125 126 129 132 137 139
136 139 143 148 143 134 127 127 131 133 132 130 132 138 149 167 176 176 169 154 130 118 115 125 134 133 124 111 103 103 112 136 156 154 145 131 120 115 113 117 129 146 144 135 125 120 119 119 119 118 117 114 104 95 92 95 96 98 100 104 111 116 121 126 130 135 139 142 138
145 146 146 144 137 133 131 129 128 128 130 134 143 154 166 179 175 164 143 123 111 108 111 125 133 127 116 105 99 93 89 72 120 138 134 130 127 123 117 110 111 121 127 126 121 119 117 115 114 114 113 112 103 96 91 95 96 99 103 106 110 114 119 125 132 137 139 135 123
151 149 146 144 143 140 137 131 129 131 138 148 160 171 175 170 146 124 107 102 106 110 117 129 128 122 117 117 118 119 116 92 69 77 93 108 113 112 108 100 98 109 119 122 119 118 116 112 110 110 110 110 104 99 97 99 101 103 106 109 112 118 123 130 138 141 140 132 122
152 149 148 149 147 144 140 136 138 143 153 165 177 179 169 140 120 112 109 106 113 123 135 143 132 130 131 138 142 141 132 111 90 83 85 93 99 99 97 92 94 111 121 123 121 118 115 111 107 104 102 101 96 92 92 95 98 100 101 101 102 112 126 136 144 146 142 134 126
151 149 149 150 147 144 143 145 149 156 165 176 182 172 147 122 122 123 124 121 124 130 134 132 125 127 131 136 134 128 117 100 86 80 81 89 96 97 95 89 92 118 126 125 122 118 115 110 106 102 100 98 93 91 92 95 96 95 92 79 56 47 57 92 129 139 139 134 130
146 147 149 149 147 146 147 150 157 166 174 176 167 145 125 117 125 129 130 128 128 124 117 106 101 99 96 94 95 94 91 85 75 69 71 81 93 98 99 96 101 123 128 124 120 117 114 110 108 107 105 103 99 98 100 101 101 97 88 72 53 41 35 36 43 64 98 118 126
142 146 148 149 147 147 148 152 162 172 174 165 144 128 118 118 122 124 124 128 127 121 112 103 96 91 86 80 77 77 79 79 70 61 57 66 87 99 105 105 107 121 124 120 117 114 113 113 114 115 115 112 107 106 107 108 105 99 91 80 67 53 42 37 35 37 47 72 106
144 148 150 148 147 147 149 153 164 170 167 149 132 126 123 122 119 118 117 121 120 115 109 101 95 93 90 88 82 75 69 66 62 54 47 48 72 98 110 109 104 108 113 115 114 114 115 120 127 132 134 128 121 116 115 113 109 103 98 92 82 66 54 49 45 41 39 42 69
149 151 149 147 146 147 149 158 168 170 162 143 131 128 127 124 119 115 114 115 117 115 108 98 92 90 90 90 83 72 62 54 52 49 43 33 43 79 105 109 99 97 102 110 112 116 123 135 149 159 165 164 142 129 124 119 114 111 108 105 94 77 66 62 57 50 42 38 58
150 150 149 148 148 150 155 167 176 173 161 143 135 132 131 124 119 115 111 104 105 108 106 99 91 86 84 84 80 71 63 54 52 51 46 34 30 52 86 104 99 96 98 105 112 121 136 158 179 194 205 203 154 136 129 124 120 117 115 112 102 85 75 72 69 60 48 41 58
149 150 151 151 153 156 162 174 181 175 161 147 144 142 136 127 121 114 105 90 88 92 95 95 88 82 78 78 79 76 69 58 52 51 49 41 38 53 75 98 100 100 102 108 118 135 157 182 208 245 272 276 153 133 128 124 123 122 122 119 111 100 89 81 78 69 56 42 53
148 154 157 158 158 161 167 177 180 175 163 155 152 145 135 125 119 113 104 93 89 89 91 93 89 83 79 78 80 79 74 62 48 40 38 39 47 60 77 99 105 108 112 122 139 156 175 194 233 298 318 329 26 118 124 125 128 130 134 133 124 117 110 102 91 81 70 54 45